Wind_Speed
3 2 3 4 4 4 5 5 6 7 7 8 9 9 9 9 10 11 11 12 13 14 14 15 15 14 14 14 14 15 15 16 16 17 17 17 17 17 16 16 16 16 16
3 3 4 5 5 5 6 6 7 8 8 9 10 10 10 10 11 12 13 13 14 15 15 16 15 15 15 16 16 16 16 16 16 17 17 17 17 17 17 17 17 17 17
4 5 5 5 6 6 7 7 8 9 9 9 10 11 11 12 12 13 13 14 15 16 16 15 15 16 16 16 17 17 17 17 17 17 17 17 17 17 16 17 17 18 19
5 5 6 7 7 7 8 8 9 9 10 10 11 12 12 13 13 13 14 15 16 16 16 16 17 17 17 17 17 17 18 17 17 18 17 17 17 17 17 18 18 19 19
6 7 7 8 8 8 8 8 9 10 11 12 12 13 13 14 14 15 15 16 17 17 18 18 18 18 17 17 17 18 18 18 18 18 18 17 17 18 18 19 19 19 19
8 8 9 9 8 8 9 9 10 11 12 13 14 15 15 15 16 16 17 17 18 18 19 19 19 18 18 18 18 18 18 19 19 18 18 18 18 18 19 19 20 20 20
9 10 10 10 9 10 11 12 12 13 14 15 15 16 16 17 17 18 18 19 19 20 20 20 19 18 19 19 18 19 19 19 19 19 19 19 19 19 19 20 20 20 21
10 11 11 11 12 12 13 14 14 14 15 16 16 17 18 19 19 19 19 20 20 20 20 20 20 20 20 19 20 20 21 21 20 20 20 20 20 20 20 21 21 22 23
12 12 12 12 13 14 15 16 16 17 17 18 18 19 20 20 20 21 21 21 21 21 21 21 21 21 21 21 21 22 22 22 21 21 22 22 22 22 22 23 23 24 24
15 15 14 14 15 16 17 18 18 19 20 20 20 21 21 22 23 22 22 23 23 23 23 23 23 23 22 23 23 23 23 23 23 23 23 23 23 24 24 25 25 25 26
18 18 18 18 18 18 19 19 20 21 21 22 22 22 23 24 24 24 24 24 24 25 25 25 26 25 25 25 24 25 25 24 24 24 24 24 24 24 25 25 25 26 27
21 21 21 20 20 20 21 22 22 23 23 24 24 24 25 25 25 25 25 26 25 26 26 26 27 26 26 26 26 26 26 26 26 25 25 25 25 25 25 25 26 27 28
24 23 23 23 23 23 23 23 24 25 25 26 26 26 26 26 26 27 27 27 26 27 27 27 27 27 27 27 27 27 27 26 26 26 26 26 26 26 26 26 27 27 28
27 27 27 27 26 25 25 25 26 26 27 27 27 27 27 27 28 28 28 28 28 28 28 27 27 27 27 28 28 28 27 26 26 27 27 27 27 27 27 28 28 28 29
29 28 28 28 27 27 27 28 28 28 28 29 29 29 29 29 29 29 29 29 29 29 29 28 27 28 28 29 29 28 27 27 27 28 28 28 28 28 29 29 29 29 29
29 29 29 29 28 28 29 29 29 29 30 31 31 31 31 31 31 31 30 30 30 29 29 29 28 28 29 29 29 29 28 27 28 28 28 29 29 30 30 30 30 30 30
30 30 30 30 30 30 30 30 31 31 32 32 32 32 32 32 33 33 32 32 31 31 31 30 30 30 30 29 29 29 29 29 29 29 29 30 31 31 31 31 32 32 32
32 32 32 32 32 32 32 32 33 33 33 34 34 34 34 34 34 34 34 33 32 32 32 31 31 32 31 31 31 30 31 30 30 30 31 31 32 32 33 33 33 33 33
33 33 33 33 34 34 34 34 35 35 36 36 37 36 36 35 35 35 35 35 33 33 32 32 32 33 32 32 32 31 32 32 31 31 31 32 32 32 33 33 33 33 34
34 34 34 35 36 36 37 37 37 37 38 38 38 38 38 37 37 37 37 35 35 34 34 34 34 34 33 33 33 33 33 32 32 32 32 33 33 33 32 33 33 34 34
35 35 35 35 36 37 38 38 38 39 39 39 39 39 39 39 39 38 37 37 36 36 36 36 35 35 34 35 34 34 33 32 32 33 33 33 33 33 33 33 34 34 34
36 36 36 37 38 38 39 39 39 39 39 39 39 39 40 40 40 40 39 38 37 37 37 37 37 36 35 35 35 35 34 33 33 34 34 34 34 34 33 34 35 35 35
37 37 38 38 38 39 39 39 40 40 40 40 40 40 40 40 40 39 39 38 38 38 38 38 38 38 37 36 36 35 35 34 33 33 34 33 33 34 34 35 36 36 36
38 38 38 38 38 38 38 38 39 40 40 40 39 40 40 39 39 39 39 39 38 38 38 39 38 38 38 37 36 36 35 34 34 34 34 34 35 35 35 36 35 36 35
38 39 39 38 38 37 37 38 39 40 41 40 40 40 40 40 40 39 39 39 39 38 38 38 38 38 37 36 36 36 35 35 35 35 35 36 36 36 35 35 34 34 33
39 40 39 38 37 37 37 37 38 39 38 38 39 39 39 40 39 39 39 39 39 39 38 38 37 36 36 36 36 35 35 34 34 34 34 35 35 35 34 33 33 33 33
Wind_Direction
352 344 346 346 343 340 345 347 342 337 333 334 334 330 326 323 320 319 318 319 319 319 318 316 314 312 312 311 311 307 305 303 301 300 299 299 298 296 295 296 297 295 292
326 322 326 327 328 332 331 333 334 333 332 333 337 335 329 322 317 316 317 319 318 318 318 316 316 316 315 312 311 308 307 305 303 302 301 299 297 297 296 293 293 293 292
305 309 312 319 320 324 328 330 330 331 332 333 334 335 332 326 322 318 318 320 320 319 319 320 321 319 316 314 314 312 310 308 305 305 303 300 297 296 296 295 294 294 293
306 313 315 318 320 319 324 323 327 331 331 330 330 329 327 326 324 321 319 320 321 321 322 320 318 317 317 316 314 314 313 312 308 303 301 299 298 296 296 297 298 297 295
298 305 309 311 310 314 319 320 322 326 327 328 326 325 323 323 321 319 318 319 321 321 319 317 317 314 314 314 314 313 312 310 309 307 301 299 299 298 298 297 299 300 297
291 298 305 306 307 314 317 322 323 322 322 322 323 321 319 320 320 321 320 320 320 319 317 316 315 313 313 313 314 314 314 314 312 310 306 301 300 300 300 300 299 299 298
295 296 301 300 304 309 313 318 320 320 320 320 321 322 322 322 321 320 320 320 319 318 317 317 316 313 313 312 313 312 313 313 312 311 308 305 302 302 301 301 300 299 298
294 296 297 297 299 302 306 310 311 313 314 315 316 318 318 318 317 316 318 318 317 315 315 315 315 313 313 312 310 310 310 310 310 309 308 306 304 302 303 302 301 299 298
290 293 294 296 298 299 301 303 306 308 310 312 313 313 314 314 316 313 312 313 314 314 313 312 311 311 311 310 309 309 308 307 306 305 305 304 303 302 301 301 300 300 299
285 287 292 295 296 298 299 300 301 304 307 309 310 311 312 313 313 311 310 310 309 310 310 310 310 309 308 308 307 306 306 306 304 303 303 302 301 300 300 299 300 300 300
280 283 286 290 292 294 297 298 298 300 304 306 308 309 310 310 312 312 310 308 307 309 308 308 308 307 305 305 305 304 304 304 304 303 301 301 300 300 300 300 299 299 299
276 280 282 285 287 290 293 295 295 298 301 302 304 305 307 308 309 309 308 308 306 306 307 306 306 306 305 305 304 304 303 303 303 303 303 302 302 302 301 301 300 300 300
274 277 280 282 284 287 290 293 294 295 298 300 301 303 305 306 307 307 307 306 305 306 306 304 304 304 304 304 303 303 303 304 303 304 304 305 304 303 303 302 301 300 300
275 278 280 281 282 285 287 290 291 292 295 298 300 302 303 303 304 305 305 305 304 305 305 302 301 302 304 304 303 302 302 303 303 303 303 304 304 303 302 302 302 302 301
274 275 279 281 282 283 286 289 288 289 292 295 297 299 301 301 302 302 302 303 304 304 305 304 302 302 304 304 303 303 303 303 303 302 302 304 303 302 301 301 301 301 303
274 273 276 278 279 283 285 285 287 289 291 293 294 297 299 300 301 301 301 301 302 302 302 303 302 301 303 304 304 303 302 302 302 301 301 301 302 303 302 302 301 300 300
273 274 275 277 279 280 282 284 286 288 290 291 293 295 297 298 299 299 300 300 301 301 301 300 300 299 300 301 301 302 301 300 300 300 299 300 301 301 301 301 300 300 299
272 273 274 276 278 279 281 284 286 288 289 290 292 294 295 295 296 296 297 297 299 299 299 297 297 297 298 298 300 301 301 300 300 300 300 300 300 299 299 300 300 300 299
270 271 272 274 277 279 281 283 284 286 287 289 291 293 293 293 294 294 294 295 296 295 296 295 295 296 296 295 297 300 300 300 300 301 301 301 300 299 299 298 299 300 300
270 271 272 274 276 278 280 282 283 285 285 286 288 289 290 291 292 293 293 293 292 292 293 294 294 294 294 294 295 297 298 298 299 300 301 301 300 299 298 298 300 301 301
270 271 272 274 276 279 280 282 283 284 284 285 286 287 288 289 291 292 291 291 291 291 292 293 293 292 293 294 294 296 296 297 298 299 299 299 299 300 299 299 299 300 301
268 270 272 274 276 279 281 281 282 283 284 284 285 285 286 287 288 290 289 289 289 290 290 291 292 291 291 293 293 294 294 294 296 297 298 297 298 299 300 299 298 300 301
269 271 273 274 276 277 279 280 282 285 286 285 284 285 286 287 287 287 288 289 288 288 289 289 291 291 289 289 291 292 292 293 294 295 296 297 297 298 298 299 299 299 299
270 271 273 274 277 279 281 283 283 285 287 285 285 285 285 285 286 287 287 288 288 287 288 289 289 289 288 287 287 289 291 293 293 294 295 297 297 297 298 299 299 298 297
272 275 275 276 278 280 282 283 283 284 285 285 284 285 284 285 285 285 286 287 287 286 288 289 289 289 290 288 288 289 290 291 293 294 294 295 295 296 297 297 298 298 297
273 276 277 279 280 281 283 284 283 284 284 284 284 284 284 283 284 285 285 286 286 285 287 289 291 291 291 292 292 292 291 292 292 292 292 292 293 294 295 296 297 298 298
Height
5905 5905 5904 5903 5902 5901 5900 5899 5898 5897 5895 5894 5892 5891 5889 5888 5886 5884 5883 5881 5879 5877 5875 5872 5870 5867 5865 5863 5861 5859 5857 5855 5853 5851 5849 5847 5845 5844 5842 5840 5838 5837 5836
5905 5904 5903 5902 5901 5900 5899 5898 5897 5895 5894 5892 5891 5889 5887 5886 5884 5882 5880 5879 5877 5874 5872 5869 5867 5864 5862 5860 5858 5855 5853 5851 5849 5847 5845 5843 5841 5839 5838 5836 5834 5833 5831
5903 5902 5902 5901 5900 5899 5898 5896 5895 5894 5892 5891 5889 5887 5885 5884 5882 5880 5878 5876 5874 5871 5869 5866 5864 5861 5859 5856 5854 5852 5849 5847 5845 5843 5841 5838 5836 5835 5833 5832 5830 5828 5827
5902 5901 5901 5900 5899 5897 5896 5895 5893 5892 5890 5888 5887 5885 5883 5881 5879 5877 5875 5873 5871 5868 5866 5863 5861 5858 5856 5853 5851 5848 5845 5843 5841 5838 5836 5834 5832 5830 5828 5827 5825 5823 5822
5901 5900 5899 5898 5897 5895 5894 5893 5891 5890 5888 5886 5885 5883 5881 5879 5877 5875 5872 5870 5868 5865 5862 5860 5857 5854 5852 5850 5847 5845 5842 5839 5836 5834 5832 5830 5828 5826 5824 5822 5820 5818 5816
5899 5898 5897 5896 5895 5894 5892 5891 5889 5887 5886 5884 5882 5880 5878 5876 5874 5872 5870 5867 5864 5862 5859 5856 5853 5850 5848 5846 5843 5841 5838 5835 5832 5830 5827 5825 5823 5821 5819 5817 5815 5813 5811
5897 5896 5895 5894 5893 5892 5890 5889 5887 5885 5883 5881 5879 5877 5875 5873 5871 5869 5866 5863 5861 5858 5855 5852 5849 5847 5844 5842 5839 5837 5834 5831 5828 5826 5823 5820 5818 5816 5814 5811 5809 5807 5805
5894 5893 5892 5891 5890 5889 5887 5886 5884 5882 5880 5878 5876 5874 5872 5870 5868 5865 5863 5860 5857 5854 5851 5849 5846 5843 5840 5837 5835 5832 5829 5826 5824 5821 5818 5815 5813 5810 5808 5806 5804 5801 5799
5890 5889 5888 5887 5886 5885 5884 5882 5880 5879 5877 5875 5873 5870 5868 5866 5864 5861 5858 5855 5853 5850 5847 5844 5841 5838 5835 5832 5830 5827 5824 5821 5818 5815 5813 5810 5807 5805 5802 5800 5797 5795 5793
5887 5886 5885 5884 5883 5881 5880 5878 5876 5875 5873 5870 5868 5866 5863 5861 5859 5856 5853 5851 5848 5845 5842 5839 5836 5833 5830 5827 5824 5821 5818 5815 5812 5810 5807 5804 5801 5798 5795 5793 5790 5788 5785
5882 5881 5880 5879 5878 5877 5875 5874 5872 5870 5868 5866 5863 5861 5858 5856 5854 5851 5848 5845 5842 5839 5836 5833 5830 5827 5824 5821 5818 5815 5812 5809 5806 5803 5800 5797 5795 5792 5789 5786 5783 5780 5777
5876 5875 5875 5874 5873 5871 5870 5869 5867 5865 5863 5860 5858 5855 5853 5850 5848 5845 5842 5839 5836 5833 5830 5827 5824 5820 5817 5814 5812 5809 5805 5802 5799 5796 5793 5790 5788 5785 5782 5778 5775 5772 5769
5869 5869 5868 5868 5866 5865 5864 5862 5861 5859 5857 5854 5852 5849 5847 5844 5841 5838 5835 5832 5829 5826 5823 5820 5817 5814 5811 5808 5804 5801 5798 5795 5792 5789 5786 5783 5780 5777 5774 5771 5768 5765 5761
5862 5862 5861 5860 5859 5858 5857 5856 5854 5852 5850 5848 5845 5843 5840 5837 5834 5831 5828 5825 5822 5819 5816 5813 5810 5807 5804 5800 5797 5794 5791 5788 5785 5782 5779 5776 5772 5769 5766 5763 5759 5756 5753
5855 5854 5853 5853 5852 5851 5850 5848 5847 5845 5843 5841 5838 5836 5833 5830 5827 5824 5821 5818 5815 5812 5809 5806 5803 5800 5797 5793 5790 5786 5783 5780 5777 5774 5771 5768 5765 5761 5758 5754 5751 5747 5744
5847 5846 5846 5845 5844 5843 5842 5841 5839 5837 5835 5833 5830 5828 5825 5822 5819 5816 5813 5811 5807 5804 5801 5799 5796 5792 5789 5785 5782 5779 5776 5773 5770 5766 5763 5760 5757 5753 5749 5746 5742 5739 5735
5839 5838 5838 5837 5836 5835 5834 5833 5831 5829 5827 5824 5822 5819 5817 5814 5811 5808 5805 5802 5799 5796 5793 5790 5788 5784 5781 5778 5774 5771 5768 5765 5761 5758 5755 5752 5748 5745 5741 5738 5734 5730 5727
5830 5830 5829 5829 5828 5826 5825 5824 5822 5820 5818 5815 5813 5811 5808 5805 5802 5799 5797 5794 5791 5788 5785 5782 5779 5776 5773 5769 5766 5763 5760 5757 5753 5750 5746 5743 5739 5736 5732 5729 5725 5721 5718
5821 5821 5820 5820 5819 5818 5816 5814 5812 5810 5808 5806 5803 5801 5798 5795 5793 5790 5787 5785 5782 5779 5776 5773 5770 5767 5763 5761 5757 5754 5751 5748 5745 5741 5738 5734 5730 5726 5723 5719 5716 5713 5709
5811 5811 5811 5810 5809 5808 5806 5804 5802 5800 5798 5795 5793 5791 5788 5785 5782 5780 5777 5775 5772 5770 5767 5764 5761 5757 5754 5751 5748 5745 5742 5739 5736 5732 5729 5725 5721 5717 5714 5710 5707 5703 5699
5801 5801 5800 5799 5798 5797 5795 5793 5791 5789 5787 5785 5782 5780 5777 5775 5772 5769 5767 5764 5762 5759 5756 5753 5751 5748 5745 5742 5738 5736 5733 5729 5726 5723 5719 5716 5712 5708 5705 5701 5698 5694 5690
5790 5790 5789 5788 5787 5785 5784 5782 5780 5778 5775 5773 5771 5769 5766 5764 5761 5758 5756 5753 5751 5748 5746 5743 5740 5737 5734 5732 5729 5726 5723 5719 5716 5713 5709 5706 5702 5699 5695 5692 5688 5685 5681
5779 5779 5778 5777 5775 5774 5772 5770 5768 5766 5764 5761 5759 5757 5754 5752 5749 5747 5745 5742 5740 5737 5734 5732 5729 5726 5724 5721 5718 5715 5712 5709 5706 5703 5699 5696 5692 5689 5685 5682 5678 5675 5671
5768 5767 5766 5765 5763 5762 5760 5758 5756 5754 5751 5749 5747 5745 5743 5740 5738 5736 5733 5731 5728 5726 5723 5720 5718 5715 5712 5709 5707 5704 5701 5698 5695 5692 5689 5686 5682 5679 5675 5671 5668 5664 5660
5756 5755 5754 5753 5751 5750 5748 5746 5744 5742 5740 5737 5735 5732 5730 5728 5726 5724 5721 5719 5717 5714 5712 5709 5706 5704 5701 5698 5696 5693 5690 5687 5684 5681 5678 5675 5672 5668 5665 5661 5657 5653 5650
5744 5743 5742 5741 5740 5738 5736 5734 5732 5730 5727 5725 5722 5720 5718 5716 5714 5712 5710 5707 5705 5703 5700 5698 5695 5692 5690 5687 5685 5682 5680 5677 5674 5670 5667 5664 5661 5658 5654 5651 5647 5644 5640